Jamestown, ND

4:11 PM CDT on March 27, 2017 (GMT -0500)
Jamestown Municipal

Weather History for KJMS - June, 2013

Change the Weather History Date:

Friday, June 14, 2013

  Actual Average Record
Temperature  
Mean Temperature 71 °F 64 °F  
Max Temperature 81 °F 76 °F 92 °F (1973)
Min Temperature 61 °F 52 °F 31 °F (1908)
Degree Days  
Heating Degree Days 0 3  
Month to date heating degree days 85 63  
Since 1 June heating degree days 85 63  
Since 1 July heating degree days 9709 8979  
Cooling Degree Days 6 2  
Month to date cooling degree days 8 25  
Year to date cooling degree days 19 45  
Since 1 June cooling degree days 8 25  
Growing Degree Days 20 (Base 50)    
Moisture  
Dew Point 59 °F    
Average Humidity 69    
Maximum Humidity 84    
Minimum Humidity 54    
Precipitation  
Precipitation T in 0.11 in 1.72 in (2011)
Month to date precipitation 0.87 1.46  
Year to date precipitation 6.46 7.01  
Sea Level Pressure  
Sea Level Pressure 29.83 in    
Wind  
Wind Speed 12 mph (SSE)    
Max Wind Speed 26 mph    
Max Gust Speed 35 mph    
Visibility 10 miles    
Events      
T = Trace of Precipitation, MM = Missing Value Source: NWS Daily Summary

Daily Weather History Graph

Daily Weather History Graph

Search for Another Location

Airport or City:

Trip Planner

Search our weather history database for the weather conditions in past years. The results will help you decide how hot, cold, wet, or windy it might be!

Date:

Astronomy

Jun. 14, 2013 Rise Set
Actual Time 5:39 AM CDT 9:30 PM CDT
Civil Twilight 4:59 AM CDT 10:10 PM CDT
Nautical Twilight 4:05 AM CDT 11:04 PM CDT
Astronomical Twilight 2:45 AM CDT 12:25 AM CDT
Moon 11:35 AM CDT (6/14) 12:20 AM CDT (6/14)
Length of Visible Light 17h 10m
Length of Day
15h 51m
Waxing Crescent, 30% of the Moon is Illuminated
Jun 14
Waxing Crescent
Jun 16
First Quarter
Jun 23
Full
Jun 29
Last Quarter
Jul 8
New

Hourly Weather History & Observations

Time (CDT) Temp. Dew Point Humidity Pressure Visibility Wind Dir Wind Speed Gust Speed Precip Events Conditions
12:56 AM 64.0 °F 55.9 °F 75% 29.96 in 10.0 mi ESE 8.1 mph - 0.01 in   Mostly Cloudy
1:56 AM 63.0 °F 55.9 °F 78% 29.93 in 10.0 mi SE 8.1 mph - N/A   Mostly Cloudy
2:56 AM 64.0 °F 55.9 °F 75% 29.90 in 10.0 mi SE 12.7 mph - N/A   Mostly Cloudy
3:56 AM 63.0 °F 55.0 °F 75% 29.88 in 10.0 mi SE 11.5 mph - N/A   Clear
4:56 AM 62.1 °F 55.0 °F 78% 29.88 in 10.0 mi SE 8.1 mph - N/A   Clear
5:56 AM 61.0 °F 55.9 °F 83% 29.89 in 10.0 mi SE 8.1 mph - N/A   Scattered Clouds
6:56 AM 62.1 °F 55.9 °F 80% 29.88 in 10.0 mi SE 13.8 mph - N/A   Clear
7:56 AM 64.0 °F 57.0 °F 78% 29.87 in 10.0 mi SE 16.1 mph - N/A   Clear
8:56 AM 64.9 °F 57.0 °F 75% 29.91 in 10.0 mi SSE 6.9 mph - N/A   Clear
9:56 AM 66.9 °F 57.0 °F 70% 29.89 in 10.0 mi SSE 16.1 mph - N/A   Partly Cloudy
10:56 AM 69.1 °F 57.9 °F 68% 29.78 in 10.0 mi SE 19.6 mph 26.5 mph 0.00 in   Clear
11:56 AM 73.9 °F 59.0 °F 59% 29.78 in 10.0 mi South 27.6 mph 34.5 mph N/A   Clear
12:56 PM 75.0 °F 59.0 °F 57% 29.80 in 10.0 mi South 16.1 mph 26.5 mph N/A   Clear
1:56 PM 75.9 °F 60.1 °F 58% 29.80 in 10.0 mi SSE 13.8 mph 21.9 mph N/A   Overcast
2:56 PM 79.0 °F 61.0 °F 54% 29.77 in 10.0 mi South 15.0 mph 19.6 mph N/A   Mostly Cloudy
3:56 PM 79.0 °F 62.1 °F 56% 29.75 in 10.0 mi SSE 16.1 mph 20.7 mph N/A   Overcast
4:56 PM 78.1 °F 63.0 °F 60% 29.75 in 10.0 mi South 11.5 mph - N/A   Overcast
5:56 PM 75.9 °F 63.0 °F 64% 29.76 in 10.0 mi West 6.9 mph - N/A   Overcast
6:56 PM 75.0 °F 64.0 °F 69% 29.76 in 10.0 mi WNW 6.9 mph - N/A   Overcast
7:56 PM 77.0 °F 64.0 °F 64% 29.76 in 10.0 mi WNW 10.4 mph - N/A   Partly Cloudy
8:56 PM 73.0 °F 63.0 °F 71% 29.79 in 10.0 mi WNW 6.9 mph - N/A   Clear
9:56 PM 68.0 °F 59.0 °F 73% 29.81 in 10.0 mi NW 8.1 mph - N/A   Clear
10:56 PM 63.0 °F 57.0 °F 81% 29.83 in 10.0 mi NW 5.8 mph - N/A   Clear
11:56 PM 61.0 °F 55.0 °F 81% 29.86 in 10.0 mi WNW 8.1 mph - N/A   Clear